Location: Lincolnton
(35.4660°N, 81.2500°W)
Time: 02:55:41
(UTC-04:00)

HST - Visible Passes

Search period start: 01 November 2014 00:00
Search period end: 10 November 2014 23:00
Orbit: 546 x 550 km, 28.5° (Epoch: 31 October)

Date Brightness Start Highest point End Pass type
(mag) Time Alt. Az. Time Alt. Az. Time Alt. Az.
01 Nov 2.4 19:57:28 10° WSW 20:00:59 26° S 20:02:40 20° SSE visible
02 Nov 2.7 18:50:12 10° WSW 18:53:33 23° SSW 18:55:54 15° SSE visible
03 Nov 2.9 18:43:00 10° WSW 18:46:06 20° SSW 18:49:13 10° SSE visible
04 Nov 3.2 18:35:54 10° WSW 18:38:39 17° SSW 18:41:24 10° SSE visible
05 Nov 3.4 18:28:57 10° SW 18:31:10 14° SSW 18:33:22 10° SSE visible
06 Nov 3.7 18:22:27 10° SW 18:23:39 11° SSW 18:24:52 10° S visible
